Regional Weather Roundup
Issued by NWS

Home | Current Version | Previous Version | Text Only | Print | Product List | Glossary Off
Versions: 1 2 3 4 5 6 7 8 9 10 11 12 13 14 15 16 17 18 19 20 21 22 23 24 25 26 27 28 29 30 31 32 33 34 35 36 37 38 39 40 41 42 43 44 45 46 47 48 49 50

000
ASUS43 KIND 021809
RWRIN

WEATHER ROUNDUP FOR INDIANA
NATIONAL WEATHER SERVICE INDIANAPOLIS IN
200 PM EDT MON MAY 02 2016

NOTE: "FAIR" INDICATES FEW OR NO CLOUDS BELOW 12,000 FEET WITH NO
SIGNIFICANT WEATHER AND/OR OBSTRUCTIONS TO VISIBILITY.

* - STATION DOES NOT REPORT WEATHER SUCH AS PRECIPITATION OR FOG.

+ - STATION NOT QUALITY CONTROLLED BY THE NATIONAL WEATHER SERVICE.
    USE DATA WITH CAUTION...ESPECIALLY DEWPOINT AND RELATIVE
    HUMIDITY OBSERVATIONS.

INZ001>003-010>013-019-020-021900-
NORTHWEST INDIANA

CITY           SKY/WX    TMP DP  RH WIND       PRES   REMARKS
GARY /AIRPORT/ MOSUNNY   52  45  76 N16       30.07R
KNOX *+        CLOUDY    52  41  66 N7        30.02S
LA PORTE +     CLOUDY    53  46  77 NE3       30.04S
6HR MIN TEMP:  46; 6HR MAX TEMP:  53;

MICHIGAN CITY+ CLOUDY    52  45  76 N10       30.05S
MONTICELLO +   CLOUDY    51  45  80 N8        30.02S
6HR MIN TEMP:  47; 6HR MAX TEMP:  51;

RENSSELAER +   CLOUDY    52  46  82 NE6       30.04S
VALPARAISO     CLOUDY    52  44  74 NE7       30.04S
6HR MIN TEMP:  45; 6HR MAX TEMP:  54;


$$

LMZ046-743>745-021900-
SOUTHERN LAKE MICHIGAN

STATION/POSITION TIME  TEMP    WIND        PRES    WAVE
                       AIR SEA DIR/SP/G            HT
                 (UTC) (F)     (DEG/KT/KT) (MB)    (FT)
BURNS HARBOR     1725   45     360/ 12/ 16 1018.3R
MICHIGAN CITY    1700   44     350/ 14/ 15   N/A

$$

INZ004-005-014>016-021>024-021900-
NORTH CENTRAL INDIANA

CITY           SKY/WX    TMP DP  RH WIND       PRES   REMARKS
ELKHART        CLOUDY    50  48  93 E6        30.03R
GOSHEN         CLOUDY    50  45  83 N7        30.03R
6HR MIN TEMP:  45; 6HR MAX TEMP:  51;

LOGANSPORT +   DRIZZLE   50  50 100 NE5       30.02F
PERU/GRISSOM   DRIZZLE   51  51 100 NE8       30.00S FOG
6HR MIN TEMP:  48; 6HR MAX TEMP:  52; 6HR PCP:  0.02;

ROCHESTER +    CLOUDY    52  50  93 CALM      30.03S
SOUTH BEND     CLOUDY    50  44  80 NE5       30.04S
6HR MIN TEMP:  44; 6HR MAX TEMP:  51;

WARSAW +       CLOUDY    50  45  81 CALM      30.02F

$$

INZ006>009-017-018-025>027-021900-
NORTHEAST INDIANA

CITY           SKY/WX    TMP DP  RH WIND       PRES   REMARKS
ANGOLA *+      CLOUDY    48  37  66 CALM      30.02R
AUBURN +       CLOUDY    50  46  87 E3        30.03S
FORT WAYNE     DRIZZLE   50  47  89 NE7       30.03R
6HR MIN TEMP:  48; 6HR MAX TEMP:  51; 6HR PCP: TRACE;

HUNTINGTON +   CLOUDY   N/A N/A N/A E3        30.02S

$$

INZ028-029-035-036-043>045-051>053-021900-
WEST CENTRAL INDIANA

CITY           SKY/WX    TMP DP  RH WIND       PRES   REMARKS
CRAWFORDSVL +  CLOUDY    49  49 100 NW3       30.01F
6HR MIN TEMP:  47; 6HR MAX TEMP:  49;

GREENCASTLE +  CLOUDY    52  50  93 CALM      30.00F
LAFAYETTE      CLOUDY    51  47  86 N8        30.01F
6HR MIN TEMP:  48; 6HR MAX TEMP:  51;

TERRE HAUTE    CLOUDY    53  48  83 W7        30.02S
6HR MIN TEMP:  51; 6HR MAX TEMP:  54;


$$

INZ030>032-037>040-046>048-054>057-064-065-021900-
CENTRAL INDIANA

CITY           SKY/WX    TMP DP  RH WIND       PRES   REMARKS
ANDERSON       LGT RAIN  54  54 100 CALM      30.00R VSB 1
CP ATTERBURY + CLOUDY    59  50  72 N5        29.99F
COLUMBUS       CLOUDY    57  55  94 NW9       29.98F
FISHERS *+     CLOUDY    55  54  94 SW6       29.99F
FRANKFORT +      N/A     51  51 100 CALM      30.02F FOG
6HR MIN TEMP:  49; 6HR MAX TEMP:  52; 6HR PCP:  0.02;

GREENWOOD *+   CLOUDY    55  50  82 W6        30.00S
INDIANAPOLIS   CLOUDY    54  49  83 W9        29.98F
6HR MIN TEMP:  51; 6HR MAX TEMP:  55; 6HR PCP: TRACE;

-EAGLE CREEK   CLOUDY    54  50  86 W7        29.99S
6HR MIN TEMP:  51; 6HR MAX TEMP:  55;

KOKOMO *+      CLOUDY    52  46  82 NE9       30.00F
6HR MIN TEMP:  50; 6HR MAX TEMP:  52;

MARION +       CLOUDY    51  49  92 N7        30.01S
SHELBYVILLE    CLOUDY    59  51  75 NW9       29.98S
6HR MIN TEMP:  55; 6HR MAX TEMP:  60;

ZIONSVILLE +   CLOUDY    52  50  92 NW7       30.00S
6HR MIN TEMP:  50; 6HR MAX TEMP:  55;


$$

INZ033-034-041-042-049-050-058-059-021900-
EAST CENTRAL INDIANA

CITY           SKY/WX    TMP DP  RH WIND       PRES   REMARKS
MUNCIE         CLOUDY    56  50  80 NE6       30.00R
6HR MIN TEMP:  53; 6HR MAX TEMP:  56;


$$

INZ060-061-067>069-081>083-085>088-021900-
SOUTHWEST INDIANA

CITY           SKY/WX    TMP DP  RH WIND       PRES   REMARKS
EVANSVILLE     CLOUDY    61  50  67 SW7       30.02R
6HR MIN TEMP:  55; 6HR MAX TEMP:  62;

HUNTINGBURG *+ CLOUDY    61  52  72 W6        30.01R
6HR MIN TEMP:  55; 6HR MAX TEMP:  63;

WASHINGTON +   CLOUDY    57  51  81 NW9       30.01R
6HR MIN TEMP:  54; 6HR MAX TEMP:  59;


$$

INZ062-063-066-070>080-084-089>092-021900-
SOUTH CENTRAL AND SOUTHEAST INDIANA

CITY           SKY/WX    TMP DP  RH WIND       PRES   REMARKS
BEDFORD +      CLOUDY    59  55  88 W3        29.98F
BLOOMINGTON    CLOUDY    57  47  69 W7        29.99F
6HR MIN TEMP:  53; 6HR MAX TEMP:  58;

MADISON *+     CLOUDY    61  50  67 W7        30.00S
NORTH VERNON + CLOUDY    61  57  88 CALM      29.99S
SEYMOUR +      CLOUDY    63  50  63 CALM      29.98S

$$





USA.gov is the U.S. government's official web portal to all federal, state and local government web resources and services.